WA4FG Weather Reports


Display with metric or nautical units.
time (UTC)temp
F
wind
direction
speed
MPH
gust
MPH
rain 1hr
in
rain 24hr
in
rain mn
in
humidity
%
barometer
mb
20260506021143 69 90 0.0 0.0 0.00 0.00 0.00 76 1011.6
20260506020640 69 90 0.0 0.0 0.00 0.00 0.00 76 1011.6
20260506020137 69 90 0.0 0.0 0.00 0.00 0.00 76 1011.6
20260506015610 69 90 0.0 0.0 0.00 0.00 0.00 75 1011.6
20260506015108 70 90 0.0 0.0 0.00 0.00 0.00 75 1011.6
20260506014552 70 90 0.0 0.0 0.00 0.00 0.00 76 1011.5
20260506014052 70 90 0.0 0.0 0.00 0.00 0.00 74 1011.4
20260506013527 70 90 0.0 0.0 0.00 0.00 0.00 74 1011.5
20260506013000 70 90 0.0 0.0 0.00 0.00 0.00 73 1011.4
20260506012457 71 90 0.0 0.0 0.00 0.00 0.00 73 1011.6
20260506011932 71 90 0.0 0.0 0.00 0.00 0.00 72 1011.8
20260506011416 71 90 0.0 0.0 0.00 0.00 0.00 71 1011.8
20260506010416 71 90 0.0 0.0 0.00 0.00 0.00 72 1011.5
20260506005415 72 90 0.0 0.0 0.00 0.00 0.00 69 1011.5
20260506004913 72 90 0.0 0.0 0.00 0.00 0.00 69 1011.6
20260506003835 72 90 0.0 0.0 0.00 0.00 0.00 68 1011.3
20260506003333 73 90 0.0 0.0 0.00 0.00 0.00 68 1011.2
20260506002807 73 90 0.0 0.0 0.00 0.00 0.00 67 1011.2
20260506002242 73 153 0.0 0.0 0.00 0.00 0.00 67 1011.3
20260506001715 74 153 0.0 0.0 0.00 0.00 0.00 65 1011.4
20260506001156 74 153 0.0 0.0 0.00 0.00 0.00 66 1011.4
20260506000615 74 153 0.0 0.0 0.00 0.00 0.00 66 1011.6
20260506000106 75 153 0.0 0.0 0.00 0.00 0.00 64 1011.7
20260505235552 75 153 0.0 0.0 0.00 0.00 0.00 64 1011.7
20260505235028 75 153 0.0 0.0 0.00 0.00 0.00 66 1011.6
20260505234502 75 153 0.0 0.0 0.00 0.00 0.00 61 1011.5
20260505233957 75 153 0.0 1.0 0.00 0.00 0.00 62 1011.5
20260505233459 75 153 0.0 1.0 0.00 0.00 0.00 62 1011.6
20260505232932 75 153 0.0 0.0 0.00 0.00 0.00 62 1011.8
20260505232433 75 153 0.0 0.0 0.00 0.00 0.00 64 1011.9
20260505231400 76 154 0.0 1.0 0.00 0.00 0.00 60 1011.9
20260505230851 76 153 0.0 0.0 0.00 0.00 0.00 60 1011.9
20260505230404 76 153 0.0 0.0 0.00 0.00 0.00 61 1011.8
20260505225846 76 153 0.0 0.0 0.00 0.00 0.00 60 1011.9
20260505225345 76 153 0.0 1.0 0.00 0.00 0.00 60 1012.0
20260505224845 76 153 0.0 1.0 0.00 0.00 0.00 58 1012.0
20260505223823 76 140 0.0 4.0 0.00 0.00 0.00 59 1012.1
20260505223234 76 139 0.0 4.0 0.00 0.00 0.00 59 1012.1
20260505221719 77 115 0.0 0.0 0.00 0.00 0.00 57 1012.0
20260505221220 77 115 0.0 1.0 0.00 0.00 0.00 57 1011.9
20260505220713 77 117 0.0 1.0 0.00 0.00 0.00 56 1012.0
20260505220212 77 126 0.0 0.0 0.00 0.00 0.00 58 1012.0
20260505215651 77 123 0.0 1.0 0.00 0.00 0.00 57 1012.0
20260505215148 77 122 0.0 1.0 0.00 0.00 0.00 56 1012.1
20260505214649 77 127 0.0 1.0 0.00 0.00 0.00 56 1012.1
20260505213600 77 176 0.0 5.0 0.00 0.00 0.00 55 1012.1
20260505212522 77 198 1.0 10.0 0.00 0.00 0.00 54 1012.1
20260505211007 77 159 1.0 8.0 0.00 0.00 0.00 54 1012.0
20260505210509 78 180 1.0 8.0 0.00 0.00 0.00 53 1012.0
20260505210001 78 101 1.0 9.0 0.00 0.00 0.00 53 1011.9
20260505205501 78 174 1.0 9.0 0.00 0.00 0.00 54 1012.0
20260505205001 77 171 0.0 7.0 0.00 0.00 0.00 55 1012.0
20260505204502 77 248 0.0 7.0 0.00 0.00 0.00 53 1012.2
20260505203935 77 130 1.0 7.0 0.00 0.00 0.00 53 1012.1
20260505203434 77 228 1.0 7.0 0.00 0.00 0.00 52 1012.2
20260505201904 77 78 1.0 7.0 0.00 0.00 0.00 57 1012.3
20260505200843 77 216 1.0 6.0 0.00 0.00 0.00 54 1012.6
20260505200344 76 208 1.0 8.0 0.00 0.00 0.00 56 1012.7
20260505195844 76 236 1.0 8.0 0.00 0.00 0.00 55 1012.8
20260505195320 77 168 0.0 4.0 0.00 0.00 0.00 58 1012.9
20260505194751 77 178 0.0 4.0 0.00 0.00 0.00 55 1012.9
20260505194248 77 172 0.0 1.0 0.00 0.00 0.00 55 1012.9
20260505193722 77 83 1.0 6.0 0.00 0.00 0.00 55 1012.9
20260505193155 78 246 1.0 6.0 0.00 0.00 0.00 53 1013.1
20260505192138 78 143 1.0 6.0 0.00 0.00 0.00 54 1013.1
20260505191636 78 107 0.0 1.0 0.00 0.00 0.00 54 1013.2
20260505190605 76 161 1.0 6.0 0.00 0.00 0.00 56 1013.4
20260505190040 76 222 1.0 6.0 0.00 0.00 0.00 54 1013.4
20260505185520 77 153 0.0 4.0 0.00 0.00 0.00 52 1013.6
20260505185017 77 156 0.0 6.0 0.00 0.00 0.00 55 1013.6
20260505183947 76 151 1.0 7.0 0.00 0.00 0.00 54 1013.7
20260505183443 76 192 0.0 7.0 0.00 0.00 0.00 58 1013.7
20260505182941 76 57 1.0 7.0 0.00 0.00 0.00 54 1013.8
20260505182421 75 96 1.0 7.0 0.00 0.00 0.00 55 1013.9
20260505181918 75 154 0.0 6.0 0.00 0.00 0.00 57 1013.9
20260505180913 74 179 0.0 6.0 0.00 0.00 0.00 58 1014.0
20260505175853 74 271 1.0 7.0 0.00 0.00 0.00 56 1014.0
20260505175324 74 175 1.0 7.0 0.00 0.00 0.00 56 1014.1
20260505174820 75 196 1.0 7.0 0.00 0.00 0.00 57 1014.3
20260505174317 74 155 0.0 5.0 0.00 0.00 0.00 58 1014.3
20260505173815 75 195 0.0 4.0 0.00 0.00 0.00 57 1014.4
20260505173247 75 135 0.0 4.0 0.00 0.00 0.00 56 1014.5
20260505172229 75 189 1.0 8.0 0.00 0.00 0.00 57 1014.6
20260505171725 75 134 0.0 5.0 0.00 0.00 0.00 57 1014.5
20260505171222 75 166 0.0 4.0 0.00 0.00 0.00 58 1014.6
20260505170721 74 134 0.0 1.0 0.00 0.00 0.00 60 1014.6
20260505170151 74 132 0.0 1.0 0.00 0.00 0.00 59 1014.7
20260505165646 73 132 0.0 1.0 0.00 0.00 0.00 61 1014.8
20260505165133 73 139 0.0 4.0 0.00 0.00 0.00 59 1014.8
20260505164631 73 134 0.0 4.0 0.00 0.00 0.00 58 1014.8
20260505164119 73 214 0.0 9.0 0.00 0.00 0.00 61 1014.8
20260505163620 73 173 1.0 9.0 0.00 0.00 0.00 61 1014.8
20260505163053 73 121 1.0 5.0 0.00 0.00 0.00 62 1014.9
20260505162548 73 98 1.0 7.0 0.00 0.00 0.00 58 1014.8
20260505162034 73 104 1.0 7.0 0.00 0.00 0.00 58 1014.8
20260505161505 73 84 1.0 7.0 0.00 0.00 0.00 61 1014.8
20260505160435 74 333 1.0 6.0 0.00 0.00 0.00 59 1014.8
20260505153312 73 94 2.0 11.0 0.00 0.00 0.00 58 1014.9
20260505152811 73 113 1.0 11.0 0.00 0.00 0.00 61 1015.0
20260505152311 73 115 0.0 9.0 0.00 0.00 0.00 61 1015.1
20260505151755 72 173 0.0 7.0 0.00 0.00 0.00 62 1015.0
20260505151252 72 173 1.0 7.0 0.00 0.00 0.00 64 1015.0
20260505150726 71 129 1.0 6.0 0.00 0.00 0.00 62 1015.2
20260505150226 71 61 1.0 7.0 0.00 0.00 0.00 63 1015.2
20260505140438 64 235 1.0 5.0 0.00 0.00 0.00 75 1015.3
20260505124633 54 125 0.0 0.0 0.00 0.00 0.00 98 1014.5
20260505124131 53 125 0.0 0.0 0.00 0.00 0.00 98 1014.4
20260505123110 53 125 0.0 0.0 0.00 0.00 0.00 97 1014.3
20260505122622 52 125 0.0 0.0 0.00 0.00 0.00 97 1014.1
20260505122043 52 125 0.0 0.0 0.00 0.00 0.00 97 1014.1
20260505121518 52 125 0.0 0.0 0.00 0.00 0.00 97 1014.1
20260505121010 51 125 0.0 0.0 0.00 0.00 0.00 97 1014.1
20260505120526 51 125 0.0 0.0 0.00 0.00 0.00 97 1014.0
20260505115939 51 125 0.0 0.0 0.00 0.00 0.00 97 1014.1
20260505115443 51 125 0.0 0.0 0.00 0.00 0.00 97 1014.0
20260505114912 51 125 0.0 0.0 0.00 0.00 0.00 96 1013.8
20260505114408 51 125 0.0 0.0 0.00 0.00 0.00 96 1013.7
20260505113905 51 125 0.0 0.0 0.00 0.00 0.00 96 1013.9
20260505113356 51 125 0.0 0.0 0.00 0.00 0.00 96 1013.8
20260505112849 51 125 0.0 0.0 0.00 0.00 0.00 96 1013.7
20260505112327 51 125 0.0 0.0 0.00 0.00 0.00 96 1013.6
20260505111755 51 125 0.0 0.0 0.00 0.00 0.00 96 1013.5
20260505110716 51 125 0.0 0.0 0.00 0.00 0.00 96 1013.5
20260505110213 51 125 0.0 0.0 0.00 0.00 0.00 96 1013.6
20260505102027 51 125 0.0 0.0 0.00 0.00 0.00 95 1013.2
20260505101501 52 125 0.0 0.0 0.00 0.00 0.00 95 1013.2
20260505100941 52 125 0.0 0.0 0.00 0.00 0.00 95 1013.3
20260505100442 52 125 0.0 0.0 0.00 0.00 0.00 95 1013.3
20260505095938 52 125 0.0 0.0 0.00 0.00 0.00 94 1013.2
20260505095429 52 125 0.0 0.0 0.00 0.00 0.00 94 1013.3
20260505093833 52 125 0.0 0.0 0.00 0.00 0.00 94 1013.5
20260505093329 52 125 0.0 0.0 0.00 0.00 0.00 94 1013.6
20260505092259 52 125 0.0 0.0 0.00 0.00 0.00 94 1013.5
20260505091734 52 125 0.0 0.0 0.00 0.00 0.00 94 1013.5
20260505091207 53 125 0.0 0.0 0.00 0.00 0.00 94 1013.6
20260505090642 53 125 0.0 0.0 0.00 0.00 0.00 94 1013.6
20260505090127 53 125 0.0 0.0 0.00 0.00 0.00 94 1013.6
20260505085600 53 125 0.0 0.0 0.00 0.00 0.00 94 1013.6
20260505085100 53 125 0.0 0.0 0.00 0.00 0.00 94 1013.7
20260505084001 53 125 0.0 0.0 0.00 0.00 0.00 93 1013.6
20260505082947 53 125 0.0 0.0 0.00 0.00 0.00 93 1013.8
20260505082420 53 125 0.0 0.0 0.00 0.00 0.00 93 1013.7
20260505081859 53 125 0.0 0.0 0.00 0.00 0.00 93 1013.8
20260505081351 53 125 0.0 0.0 0.00 0.00 0.00 93 1013.8
20260505080830 53 125 0.0 0.0 0.00 0.00 0.00 93 1013.8
20260505075803 53 125 0.0 0.0 0.00 0.00 0.00 92 1013.9
20260505075300 53 125 0.0 0.0 0.00 0.00 0.00 92 1013.9
20260505074757 53 125 0.0 0.0 0.00 0.00 0.00 92 1013.9
20260505073709 53 125 0.0 0.0 0.00 0.00 0.00 92 1014.1
20260505072650 54 125 0.0 0.0 0.00 0.00 0.00 91 1014.0
20260505072147 54 125 0.0 0.0 0.00 0.00 0.00 91 1013.9
20260505070610 54 125 0.0 0.0 0.00 0.00 0.00 91 1013.9
20260505070106 54 125 0.0 0.0 0.00 0.00 0.00 91 1013.9
20260505065558 54 125 0.0 0.0 0.00 0.00 0.00 91 1013.9
20260505065055 54 125 0.0 0.0 0.00 0.00 0.00 91 1013.9
20260505064530 55 125 0.0 0.0 0.00 0.00 0.00 90 1013.9
20260505064027 55 125 0.0 0.0 0.00 0.00 0.00 90 1014.0
20260505063504 55 125 0.0 0.0 0.00 0.00 0.00 90 1014.0
20260505062936 55 125 0.0 0.0 0.00 0.00 0.00 90 1013.9
20260505062429 55 125 0.0 0.0 0.00 0.00 0.00 90 1014.0
20260505061904 55 125 0.0 0.0 0.00 0.00 0.00 89 1014.0
20260505061403 55 125 0.0 0.0 0.00 0.00 0.00 89 1013.9
20260505060348 56 125 0.0 0.0 0.00 0.00 0.00 88 1014.0
20260505055823 56 125 0.0 0.0 0.00 0.00 0.00 88 1014.2
20260505054822 56 125 0.0 0.0 0.00 0.00 0.00 87 1014.2
20260505054319 56 125 0.0 0.0 0.00 0.00 0.00 87 1014.2
20260505053305 56 125 0.0 0.0 0.00 0.00 0.00 87 1014.1
20260505052738 56 125 0.0 0.0 0.00 0.00 0.00 86 1014.1
20260505052224 56 125 0.0 0.0 0.00 0.00 0.00 86 1014.0
20260505051709 56 125 0.0 0.0 0.00 0.00 0.00 86 1013.9
20260505051210 56 125 0.0 0.0 0.00 0.00 0.00 86 1013.9
20260505050646 56 125 0.0 0.0 0.00 0.00 0.00 85 1013.9
20260505050121 56 125 0.0 0.0 0.00 0.00 0.00 85 1013.8
20260505041442 57 125 0.0 0.0 0.00 0.00 0.00 81 1013.6
20260505040931 58 125 0.0 0.0 0.00 0.00 0.00 80 1013.8
20260505040433 58 125 0.0 0.0 0.00 0.00 0.00 80 1013.8
20260505035926 58 125 0.0 0.0 0.00 0.00 0.00 80 1013.8
20260505034423 58 125 0.0 0.0 0.00 0.00 0.00 78 1013.9
20260505033334 59 125 0.0 0.0 0.00 0.00 0.00 77 1013.9
20260505032835 59 125 0.0 0.0 0.00 0.00 0.00 77 1013.8
20260505032310 59 125 0.0 0.0 0.00 0.00 0.00 76 1013.8
20260505031743 59 125 0.0 0.0 0.00 0.00 0.00 76 1013.7
20260505031219 60 125 0.0 0.0 0.00 0.00 0.00 76 1013.7
20260505030704 60 125 0.0 0.0 0.00 0.00 0.00 75 1013.6
20260505030205 60 125 0.0 0.0 0.00 0.00 0.00 75 1013.7
20260505025638 60 125 0.0 0.0 0.00 0.00 0.00 74 1013.7
20260505025132 60 125 0.0 0.0 0.00 0.00 0.00 73 1013.7
20260505024633 61 125 0.0 0.0 0.00 0.00 0.00 73 1013.8
20260505024106 61 125 0.0 0.0 0.00 0.00 0.00 72 1013.8
20260505023535 61 125 0.0 0.0 0.00 0.00 0.00 71 1013.7
20260505023021 62 125 0.0 0.0 0.00 0.00 0.00 71 1013.7
20260505022521 62 125 0.0 0.0 0.00 0.00 0.00 70 1013.7